JAT556 SCIE-SCFA

Flight info

Callsign JAT556
Flight time 2h 7m
Altitude 36000
Route SOSTA5M SOSTA UT105 TOY UV200 DOVRI UQ802 LONEK LONEK2A
Aircraft A320/M-SDE3FGHIRWY/LB1

Departure

Time 2026-04-20 15:20
Airport Carriel Sur International Airport (SCIE)

Arrival

Time 2026-04-20 17:28
Airport Andrés Sabella Gálvez International Airport (SCFA)
Time Latitude Longitude Altitude Speed Heading
2026-04-20 14:53 -36.77631 -73.05902 30 ft 0 kts 200°
2026-04-20 14:56 -36.77630 -73.05902 30 ft 0 kts 200°
2026-04-20 15:08 -36.77607 -73.05891 30 ft 4 kts 200°
2026-04-20 15:08 -36.77586 -73.05881 30 ft 4 kts 213°
2026-04-20 15:08 -36.77572 -73.05858 30 ft 4 kts 275°
2026-04-20 15:09 -36.77578 -73.05832 30 ft 1 kts 296°
2026-04-20 15:11 -36.77575 -73.05838 30 ft 2 kts 296°
2026-04-20 15:12 -36.77564 -73.05866 30 ft 5 kts 295°
2026-04-20 15:12 -36.77551 -73.05918 30 ft 7 kts 282°
2026-04-20 15:12 -36.77545 -73.05990 30 ft 9 kts 272°
2026-04-20 15:12 -36.77534 -73.06066 30 ft 8 kts 289°
2026-04-20 15:13 -36.77508 -73.06130 30 ft 9 kts 297°
2026-04-20 15:13 -36.77466 -73.06182 30 ft 9 kts 351°
2026-04-20 15:13 -36.77404 -73.06157 30 ft 11 kts 25°
2026-04-20 15:13 -36.77330 -73.06115 30 ft 13 kts 24°
2026-04-20 15:14 -36.77245 -73.06065 30 ft 15 kts 25°
2026-04-20 15:14 -36.77146 -73.06008 30 ft 17 kts 25°
2026-04-20 15:14 -36.77037 -73.05942 29 ft 17 kts 26°
2026-04-20 15:14 -36.76928 -73.05878 30 ft 18 kts 25°
2026-04-20 15:15 -36.76817 -73.05814 30 ft 18 kts 25°
2026-04-20 15:15 -36.76702 -73.05747 30 ft 18 kts 25°
2026-04-20 15:15 -36.76588 -73.05681 30 ft 19 kts 24°
2026-04-20 15:15 -36.76479 -73.05620 30 ft 15 kts 24°
2026-04-20 15:16 -36.76409 -73.05588 30 ft 9 kts
2026-04-20 15:16 -36.76360 -73.05612 29 ft 6 kts 318°
2026-04-20 15:16 -36.76341 -73.05646 29 ft 2 kts 295°
2026-04-20 15:16 -36.76340 -73.05649 29 ft 0 kts 295°
2026-04-20 15:18 -36.76340 -73.05651 29 ft 1 kts 295°
2026-04-20 15:18 -36.76335 -73.05662 29 ft 3 kts 295°
2026-04-20 15:18 -36.76321 -73.05699 29 ft 6 kts 295°
2026-04-20 15:18 -36.76318 -73.05758 28 ft 8 kts 247°
2026-04-20 15:19 -36.76353 -73.05793 28 ft 0 kts 206°
2026-04-20 15:19 -36.76353 -73.05794 28 ft 0 kts 206°
2026-04-20 15:19 -36.76432 -73.05840 30 ft 39 kts 205°
2026-04-20 15:20 -36.76900 -73.06111 26 ft 106 kts 205°
2026-04-20 15:20 -36.77724 -73.06588 34 ft 153 kts 205°
2026-04-20 15:20 -36.78722 -73.07173 524 ft 156 kts 205°
2026-04-20 15:20 -36.79702 -73.07731 1206 ft 156 kts 207°
2026-04-20 15:21 -36.80456 -73.08756 1462 ft 174 kts 255°
2026-04-20 15:21 -36.80371 -73.10287 1763 ft 189 kts 296°
2026-04-20 15:21 -36.79417 -73.11504 2050 ft 208 kts 328°
2026-04-20 15:21 -36.78137 -73.12489 2420 ft 227 kts 328°
2026-04-20 15:22 -36.76738 -73.13588 2876 ft 247 kts 327°
2026-04-20 15:22 -36.75248 -73.14773 3571 ft 258 kts 327°
2026-04-20 15:22 -36.73723 -73.15987 4427 ft 262 kts 327°
2026-04-20 15:22 -36.72176 -73.17200 5329 ft 264 kts 330°
2026-04-20 15:23 -36.70438 -73.17909 6151 ft 267 kts 356°
2026-04-20 15:23 -36.68600 -73.17559 6953 ft 271 kts 20°
2026-04-20 15:23 -36.66796 -73.16721 7700 ft 276 kts 21°
2026-04-20 15:23 -36.64986 -73.15867 8442 ft 281 kts 21°
2026-04-20 15:24 -36.63139 -73.14994 9197 ft 286 kts 21°
2026-04-20 15:24 -36.61262 -73.14110 9921 ft 291 kts 21°
2026-04-20 15:24 -36.59341 -73.13212 10532 ft 300 kts 21°
2026-04-20 15:24 -36.57351 -73.12282 10974 ft 313 kts 21°
2026-04-20 15:25 -36.55280 -73.11302 11455 ft 323 kts 21°
2026-04-20 15:25 -36.53149 -73.10300 11961 ft 333 kts 20°
2026-04-20 15:25 -36.50950 -73.09283 12476 ft 342 kts 20°
2026-04-20 15:25 -36.48688 -73.08255 12985 ft 349 kts 20°
2026-04-20 15:26 -36.46386 -73.07206 13541 ft 356 kts 20°
2026-04-20 15:26 -36.44045 -73.06133 14108 ft 361 kts 20°
2026-04-20 15:26 -36.41676 -73.05042 14617 ft 366 kts 20°
2026-04-20 15:26 -36.39275 -73.03929 15166 ft 370 kts 20°
2026-04-20 15:27 -36.36858 -73.02807 15704 ft 373 kts 20°
2026-04-20 15:27 -36.34416 -73.01673 16238 ft 376 kts 20°
2026-04-20 15:27 -36.31971 -73.00477 16770 ft 379 kts 25°
2026-04-20 15:27 -36.29677 -72.98840 17291 ft 382 kts 34°
2026-04-20 15:28 -36.27447 -72.97022 17831 ft 385 kts 33°
2026-04-20 15:28 -36.25194 -72.95198 18374 ft 389 kts 33°
2026-04-20 15:28 -36.22918 -72.93365 18872 ft 392 kts 33°
2026-04-20 15:28 -36.20622 -72.91518 19352 ft 395 kts 33°
2026-04-20 15:29 -36.18310 -72.89659 19834 ft 398 kts 33°
2026-04-20 15:29 -36.15979 -72.87785 20312 ft 401 kts 33°
2026-04-20 15:29 -36.13627 -72.85895 20790 ft 404 kts 33°
2026-04-20 15:29 -36.11265 -72.83994 21244 ft 407 kts 33°
2026-04-20 15:30 -36.08883 -72.82081 21694 ft 410 kts 33°
2026-04-20 15:30 -36.06482 -72.80154 22141 ft 413 kts 33°
2026-04-20 15:30 -36.04069 -72.78219 22578 ft 415 kts 33°
2026-04-20 15:30 -36.01606 -72.76240 23022 ft 418 kts 33°
2026-04-20 15:31 -35.99159 -72.74274 23457 ft 421 kts 32°
2026-04-20 15:31 -35.96729 -72.72326 23864 ft 423 kts 32°
2026-04-20 15:31 -35.94218 -72.70317 24220 ft 426 kts 32°
2026-04-20 15:31 -35.91718 -72.68319 24569 ft 429 kts 32°
2026-04-20 15:32 -35.89205 -72.66318 24914 ft 432 kts 31°
2026-04-20 15:32 -35.86671 -72.64303 25266 ft 434 kts 31°
2026-04-20 15:32 -35.84096 -72.62343 25605 ft 435 kts 26°
2026-04-20 15:32 -35.81333 -72.60833 25932 ft 435 kts 16°
2026-04-20 15:33 -35.78422 -72.59874 26269 ft 433 kts
2026-04-20 15:33 -35.75447 -72.59231 26595 ft 435 kts
2026-04-20 15:33 -35.72457 -72.58587 26937 ft 437 kts
2026-04-20 15:33 -35.69458 -72.57936 27278 ft 439 kts
2026-04-20 15:34 -35.66442 -72.57279 27631 ft 441 kts
2026-04-20 15:34 -35.63418 -72.56621 27983 ft 443 kts
2026-04-20 15:34 -35.60378 -72.55958 28330 ft 445 kts
2026-04-20 15:34 -35.57324 -72.55293 28677 ft 447 kts
2026-04-20 15:35 -35.54260 -72.54629 29026 ft 448 kts
2026-04-20 15:35 -35.51185 -72.53965 29500 ft 447 kts
2026-04-20 15:35 -35.48130 -72.53304 29984 ft 446 kts
2026-04-20 15:35 -35.45073 -72.52642 30420 ft 445 kts
2026-04-20 15:36 -35.42029 -72.51983 30787 ft 444 kts
2026-04-20 15:36 -35.38983 -72.51322 31150 ft 444 kts
2026-04-20 15:36 -35.35942 -72.50664 31514 ft 444 kts
2026-04-20 15:36 -35.32903 -72.50006 31874 ft 443 kts
2026-04-20 15:37 -35.29865 -72.49350 32239 ft 443 kts
2026-04-20 15:37 -35.26830 -72.48701 32603 ft 443 kts
2026-04-20 15:37 -35.23753 -72.48045 32977 ft 443 kts
2026-04-20 15:37 -35.20722 -72.47395 33344 ft 442 kts
2026-04-20 15:38 -35.17690 -72.46744 33709 ft 442 kts
2026-04-20 15:38 -35.14664 -72.46092 34081 ft 442 kts
2026-04-20 15:38 -35.11636 -72.45438 34404 ft 442 kts
2026-04-20 15:38 -35.08610 -72.44788 34693 ft 441 kts
2026-04-20 15:39 -35.05585 -72.44143 34970 ft 441 kts
2026-04-20 15:39 -35.02560 -72.43500 35245 ft 441 kts
2026-04-20 15:39 -34.99540 -72.42857 35505 ft 441 kts
2026-04-20 15:39 -34.96516 -72.42211 35762 ft 441 kts
2026-04-20 15:40 -34.93497 -72.41563 36008 ft 441 kts
2026-04-20 15:40 -34.90474 -72.40914 36245 ft 441 kts
2026-04-20 15:40 -34.87452 -72.40267 36489 ft 441 kts
2026-04-20 15:40 -34.84431 -72.39626 36714 ft 441 kts
2026-04-20 15:41 -34.81405 -72.38986 36941 ft 441 kts
2026-04-20 15:41 -34.78378 -72.38347 37166 ft 441 kts
2026-04-20 15:41 -34.75352 -72.37708 37373 ft 441 kts
2026-04-20 15:41 -34.72326 -72.37067 37593 ft 442 kts
2026-04-20 15:42 -34.69300 -72.36423 37795 ft 442 kts
2026-04-20 15:42 -34.66270 -72.35774 37997 ft 442 kts
2026-04-20 15:42 -34.63238 -72.35129 38183 ft 442 kts
2026-04-20 15:43 -34.57146 -72.33846 38237 ft 446 kts
2026-04-20 15:43 -34.51028 -72.32553 38246 ft 446 kts
2026-04-20 15:44 -34.44913 -72.31257 38243 ft 446 kts
2026-04-20 15:44 -34.38809 -72.29969 38242 ft 445 kts
2026-04-20 15:45 -34.32715 -72.28692 38242 ft 444 kts
2026-04-20 15:45 -34.26580 -72.27401 38247 ft 444 kts
2026-04-20 15:46 -34.20490 -72.26114 38255 ft 444 kts
2026-04-20 15:46 -34.14404 -72.24839 38259 ft 443 kts
2026-04-20 15:47 -34.08325 -72.23569 38264 ft 443 kts
2026-04-20 15:47 -34.02260 -72.22303 38262 ft 442 kts
2026-04-20 15:48 -33.96206 -72.21038 38273 ft 441 kts
2026-04-20 15:48 -33.90169 -72.19788 38273 ft 440 kts
2026-04-20 15:49 -33.84141 -72.18541 38267 ft 439 kts
2026-04-20 15:49 -33.78121 -72.17288 38265 ft 438 kts
2026-04-20 15:50 -33.72116 -72.16040 38269 ft 437 kts
2026-04-20 15:50 -33.66124 -72.14801 38266 ft 437 kts
2026-04-20 15:51 -33.60141 -72.13559 38270 ft 436 kts
2026-04-20 15:51 -33.54164 -72.12325 38271 ft 435 kts 360°
2026-04-20 15:52 -33.49169 -72.11296 38265 ft 434 kts 360°
2026-04-20 15:52 -33.43217 -72.10070 38263 ft 434 kts 360°
2026-04-20 15:53 -33.34305 -72.08230 38261 ft 432 kts 359°
2026-04-20 15:53 -33.28384 -72.07013 38256 ft 432 kts 359°
2026-04-20 15:54 -33.22466 -72.05801 38269 ft 431 kts 359°
2026-04-20 15:54 -33.16560 -72.04594 38265 ft 430 kts 359°
2026-04-20 15:55 -33.10662 -72.03387 38266 ft 430 kts 359°
2026-04-20 15:55 -33.04779 -72.02184 38266 ft 429 kts 359°
2026-04-20 15:56 -32.98893 -72.00986 38268 ft 428 kts 359°
2026-04-20 15:56 -32.93027 -71.99795 38271 ft 427 kts 358°
2026-04-20 15:57 -32.87131 -71.98601 38260 ft 427 kts 358°
2026-04-20 15:57 -32.81283 -71.97412 38259 ft 426 kts 358°
2026-04-20 15:58 -32.75450 -71.96231 38260 ft 425 kts 358°
2026-04-20 15:58 -32.69623 -71.95052 38258 ft 424 kts 358°
2026-04-20 15:59 -32.63810 -71.93874 38257 ft 424 kts 358°
2026-04-20 15:59 -32.58000 -71.92703 38249 ft 423 kts 358°
2026-04-20 16:00 -32.52194 -71.91538 38245 ft 423 kts 358°
2026-04-20 16:00 -32.46390 -71.90369 38253 ft 423 kts 358°
2026-04-20 16:01 -32.40589 -71.89197 38243 ft 423 kts 358°
2026-04-20 16:01 -32.34779 -71.88026 38240 ft 423 kts 358°
2026-04-20 16:02 -32.28974 -71.86867 38236 ft 423 kts 357°
2026-04-20 16:02 -32.23165 -71.85706 38235 ft 423 kts 357°
2026-04-20 16:03 -32.17377 -71.84544 38231 ft 422 kts 357°
2026-04-20 16:03 -32.11587 -71.83387 38226 ft 422 kts 357°
2026-04-20 16:04 -32.05797 -71.82231 38232 ft 422 kts 357°
2026-04-20 16:04 -31.99979 -71.81070 38222 ft 422 kts 357°
2026-04-20 16:05 -31.94187 -71.79922 38222 ft 422 kts 357°
2026-04-20 16:05 -31.88393 -71.78772 38220 ft 422 kts 357°
2026-04-20 16:06 -31.82597 -71.77620 38222 ft 422 kts 356°
2026-04-20 16:06 -31.76803 -71.76475 38224 ft 422 kts 356°
2026-04-20 16:07 -31.71007 -71.75323 38223 ft 422 kts 356°
2026-04-20 16:07 -31.65215 -71.74175 38216 ft 422 kts 356°
2026-04-20 16:08 -31.59425 -71.73040 38226 ft 422 kts 356°
2026-04-20 16:08 -31.53634 -71.71902 38222 ft 422 kts 356°
2026-04-20 16:09 -31.47848 -71.70755 38219 ft 422 kts 356°
2026-04-20 16:09 -31.42061 -71.69613 38212 ft 422 kts 356°
2026-04-20 16:10 -31.36272 -71.68476 38213 ft 422 kts 356°
2026-04-20 16:10 -31.30490 -71.67334 38206 ft 422 kts 356°
2026-04-20 16:11 -31.24703 -71.66192 38207 ft 421 kts 356°
2026-04-20 16:11 -31.18877 -71.65053 38199 ft 421 kts 356°
2026-04-20 16:12 -31.13095 -71.63931 38194 ft 421 kts 356°
2026-04-20 16:12 -31.07306 -71.62799 38188 ft 421 kts 356°
2026-04-20 16:13 -31.01527 -71.61662 38185 ft 422 kts 356°
2026-04-20 16:13 -30.95742 -71.60534 38184 ft 421 kts 356°
2026-04-20 16:14 -30.89957 -71.59408 38185 ft 421 kts 356°
2026-04-20 16:14 -30.84171 -71.58287 38178 ft 422 kts 356°
2026-04-20 16:15 -30.78383 -71.57165 38178 ft 422 kts 356°
2026-04-20 16:15 -30.72597 -71.56049 38186 ft 422 kts 356°
2026-04-20 16:16 -30.66806 -71.54926 38178 ft 422 kts 356°
2026-04-20 16:16 -30.61015 -71.53799 38165 ft 422 kts 357°
2026-04-20 16:17 -30.55220 -71.52673 38163 ft 422 kts 357°
2026-04-20 16:17 -30.49419 -71.51551 38168 ft 422 kts 357°
2026-04-20 16:18 -30.43616 -71.50437 38163 ft 423 kts 357°
2026-04-20 16:18 -30.37813 -71.49322 38159 ft 422 kts 357°
2026-04-20 16:19 -30.31976 -71.48204 38163 ft 423 kts 357°
2026-04-20 16:19 -30.26171 -71.47070 38158 ft 424 kts 358°
2026-04-20 16:20 -30.20358 -71.45724 38162 ft 427 kts
2026-04-20 16:20 -30.14545 -71.44265 38163 ft 427 kts
2026-04-20 16:21 -30.08734 -71.42840 38173 ft 427 kts 360°
2026-04-20 16:21 -30.02919 -71.41463 38169 ft 426 kts 360°
2026-04-20 16:22 -29.97106 -71.40100 38171 ft 426 kts 360°
2026-04-20 16:22 -29.91296 -71.38730 38172 ft 426 kts 360°
2026-04-20 16:23 -29.85484 -71.37348 38172 ft 426 kts 360°
2026-04-20 16:23 -29.79669 -71.35963 38169 ft 427 kts
2026-04-20 16:24 -29.73861 -71.34577 38170 ft 426 kts
2026-04-20 16:24 -29.68995 -71.33427 38172 ft 426 kts
2026-04-20 16:25 -29.63183 -71.32055 38173 ft 426 kts
2026-04-20 16:25 -29.57373 -71.30683 38161 ft 426 kts
2026-04-20 16:26 -29.51569 -71.29314 38168 ft 426 kts
2026-04-20 16:26 -29.45763 -71.27945 38167 ft 426 kts
2026-04-20 16:27 -29.39961 -71.26573 38162 ft 426 kts
2026-04-20 16:27 -29.34169 -71.25207 38154 ft 426 kts
2026-04-20 16:28 -29.28364 -71.23844 38156 ft 426 kts
2026-04-20 16:28 -29.22565 -71.22483 38153 ft 426 kts
2026-04-20 16:29 -29.16757 -71.21119 38159 ft 426 kts
2026-04-20 16:29 -29.10958 -71.19767 38151 ft 425 kts
2026-04-20 16:30 -29.05163 -71.18420 38145 ft 425 kts
2026-04-20 16:30 -28.99365 -71.17073 38143 ft 425 kts
2026-04-20 16:31 -28.93572 -71.15722 38145 ft 425 kts
2026-04-20 16:31 -28.87743 -71.14359 38139 ft 425 kts
2026-04-20 16:32 -28.81951 -71.13016 38137 ft 424 kts
2026-04-20 16:32 -28.76160 -71.11669 38138 ft 425 kts
2026-04-20 16:33 -28.70377 -71.10325 38138 ft 424 kts
2026-04-20 16:33 -28.64587 -71.08990 38138 ft 425 kts
2026-04-20 16:34 -28.58793 -71.07654 38145 ft 425 kts
2026-04-20 16:34 -28.53005 -71.06313 38143 ft 424 kts
2026-04-20 16:35 -28.47221 -71.04978 38138 ft 424 kts
2026-04-20 16:35 -28.41432 -71.03647 38143 ft 425 kts
2026-04-20 16:36 -28.35634 -71.02313 38147 ft 425 kts
2026-04-20 16:36 -28.29841 -71.00978 38144 ft 425 kts
2026-04-20 16:37 -28.24042 -70.99636 38141 ft 425 kts
2026-04-20 16:37 -28.18247 -70.98312 38139 ft 425 kts
2026-04-20 16:38 -28.12453 -70.96987 38135 ft 425 kts
2026-04-20 16:38 -28.06654 -70.95655 38138 ft 425 kts
2026-04-20 16:39 -28.00818 -70.94314 38142 ft 426 kts
2026-04-20 16:39 -27.95007 -70.92990 38145 ft 426 kts
2026-04-20 16:40 -27.89193 -70.91658 38143 ft 426 kts
2026-04-20 16:40 -27.83374 -70.90329 38146 ft 427 kts
2026-04-20 16:41 -27.77557 -70.89006 38147 ft 427 kts
2026-04-20 16:41 -27.71738 -70.87679 38146 ft 427 kts
2026-04-20 16:42 -27.65914 -70.86350 38146 ft 427 kts
2026-04-20 16:42 -27.60089 -70.85026 38143 ft 427 kts
2026-04-20 16:43 -27.54259 -70.83704 38147 ft 427 kts
2026-04-20 16:43 -27.48433 -70.82390 38142 ft 427 kts
2026-04-20 16:44 -27.42605 -70.81065 38142 ft 427 kts
2026-04-20 16:44 -27.36769 -70.79743 38139 ft 428 kts
2026-04-20 16:45 -27.30933 -70.78432 38146 ft 428 kts
2026-04-20 16:45 -27.25097 -70.77489 38145 ft 420 kts 356°
2026-04-20 16:46 -27.19267 -70.76972 38149 ft 420 kts 356°
2026-04-20 16:46 -27.13399 -70.76454 38141 ft 420 kts 356°
2026-04-20 16:47 -27.07564 -70.75936 38140 ft 421 kts 356°
2026-04-20 16:47 -27.01727 -70.75419 38141 ft 421 kts 356°
2026-04-20 16:48 -26.95884 -70.74896 38140 ft 421 kts 356°
2026-04-20 16:48 -26.90039 -70.74373 38144 ft 422 kts 356°
2026-04-20 16:49 -26.84189 -70.73853 38141 ft 422 kts 356°
2026-04-20 16:49 -26.78339 -70.73335 38138 ft 422 kts 356°
2026-04-20 16:50 -26.72483 -70.72820 38139 ft 422 kts 356°
2026-04-20 16:50 -26.66614 -70.72307 38122 ft 424 kts 354°
2026-04-20 16:51 -26.60722 -70.71792 38117 ft 425 kts 354°
2026-04-20 16:51 -26.54810 -70.71266 38119 ft 427 kts 354°
2026-04-20 16:52 -26.48880 -70.70742 38121 ft 428 kts 354°
2026-04-20 16:52 -26.42939 -70.70215 38134 ft 429 kts 354°
2026-04-20 16:53 -26.36987 -70.69689 38142 ft 429 kts 354°
2026-04-20 16:53 -26.30998 -70.69155 38138 ft 429 kts 354°
2026-04-20 16:54 -26.25045 -70.68632 38136 ft 429 kts 354°
2026-04-20 16:54 -26.19091 -70.68113 38136 ft 429 kts 354°
2026-04-20 16:55 -26.13138 -70.67588 38133 ft 430 kts 354°
2026-04-20 16:55 -26.07174 -70.67062 38138 ft 430 kts 354°
2026-04-20 16:56 -26.01217 -70.66547 38135 ft 430 kts 354°
2026-04-20 16:56 -25.96261 -70.66117 38136 ft 430 kts 354°
2026-04-20 16:57 -25.90291 -70.65596 38141 ft 431 kts 354°
2026-04-20 16:57 -25.84312 -70.65064 38141 ft 431 kts 354°
2026-04-20 16:58 -25.78337 -70.64537 38143 ft 431 kts 354°
2026-04-20 16:58 -25.72327 -70.64017 38135 ft 430 kts 354°
2026-04-20 16:59 -25.66356 -70.63497 38129 ft 430 kts 354°
2026-04-20 16:59 -25.60383 -70.62973 38136 ft 431 kts 354°
2026-04-20 17:00 -25.51417 -70.62197 38143 ft 431 kts 354°
2026-04-20 17:01 -25.45434 -70.61679 38137 ft 431 kts 354°
2026-04-20 17:01 -25.39457 -70.61165 38146 ft 431 kts 354°
2026-04-20 17:02 -25.33475 -70.60651 38143 ft 431 kts 354°
2026-04-20 17:02 -25.30477 -70.60394 37932 ft 432 kts 354°
2026-04-20 17:02 -25.27486 -70.60135 37500 ft 431 kts 354°
2026-04-20 17:02 -25.24498 -70.59876 37022 ft 431 kts 354°
2026-04-20 17:03 -25.21511 -70.59619 36573 ft 431 kts 355°
2026-04-20 17:03 -25.18521 -70.59362 36131 ft 431 kts 355°
2026-04-20 17:03 -25.15528 -70.59103 35696 ft 432 kts 355°
2026-04-20 17:03 -25.12532 -70.58843 35274 ft 432 kts 355°
2026-04-20 17:04 -25.09533 -70.58585 34855 ft 432 kts 355°
2026-04-20 17:04 -25.06534 -70.58330 34438 ft 433 kts 355°
2026-04-20 17:04 -25.03528 -70.58071 34004 ft 433 kts 356°
2026-04-20 17:04 -25.00528 -70.57807 33544 ft 432 kts 356°
2026-04-20 17:05 -24.97539 -70.57546 33081 ft 430 kts 356°
2026-04-20 17:05 -24.94562 -70.57290 32631 ft 429 kts 356°
2026-04-20 17:05 -24.91554 -70.57032 32176 ft 427 kts 356°
2026-04-20 17:05 -24.88630 -70.56786 31743 ft 426 kts 356°
2026-04-20 17:06 -24.85643 -70.56535 31317 ft 425 kts 356°
2026-04-20 17:06 -24.82701 -70.56285 30877 ft 424 kts 356°
2026-04-20 17:06 -24.79762 -70.56043 30466 ft 422 kts 356°
2026-04-20 17:06 -24.76841 -70.55918 30027 ft 418 kts 354°
2026-04-20 17:07 -24.73947 -70.55912 29538 ft 415 kts 352°
2026-04-20 17:07 -24.71079 -70.55972 29061 ft 411 kts 352°
2026-04-20 17:07 -24.68219 -70.56049 28584 ft 409 kts 352°
2026-04-20 17:07 -24.65383 -70.56116 28131 ft 407 kts 352°
2026-04-20 17:08 -24.62555 -70.56165 27662 ft 405 kts 353°
2026-04-20 17:08 -24.59745 -70.56196 27214 ft 403 kts 353°
2026-04-20 17:08 -24.56947 -70.56215 26777 ft 401 kts 354°
2026-04-20 17:08 -24.54164 -70.56228 26338 ft 399 kts 354°
2026-04-20 17:09 -24.51395 -70.56241 25912 ft 397 kts 354°
2026-04-20 17:09 -24.48634 -70.56253 25488 ft 395 kts 354°
2026-04-20 17:09 -24.45896 -70.56266 25075 ft 393 kts 354°
2026-04-20 17:09 -24.43164 -70.56285 24666 ft 391 kts 355°
2026-04-20 17:10 -24.40451 -70.56304 24261 ft 389 kts 355°
2026-04-20 17:10 -24.37746 -70.56322 23869 ft 387 kts 355°
2026-04-20 17:10 -24.35056 -70.56341 23423 ft 385 kts 355°
2026-04-20 17:10 -24.32385 -70.56358 22948 ft 383 kts 355°
2026-04-20 17:11 -24.29725 -70.56374 22480 ft 380 kts 355°
2026-04-20 17:11 -24.27088 -70.56388 22020 ft 377 kts 356°
2026-04-20 17:11 -24.24474 -70.56401 21563 ft 374 kts 356°
2026-04-20 17:11 -24.21878 -70.56414 21123 ft 371 kts 356°
2026-04-20 17:12 -24.19302 -70.56396 20686 ft 369 kts 358°
2026-04-20 17:12 -24.16751 -70.56315 20246 ft 363 kts 359°
2026-04-20 17:12 -24.14258 -70.56200 19812 ft 354 kts 359°
2026-04-20 17:12 -24.11824 -70.56077 19397 ft 346 kts 359°
2026-04-20 17:13 -24.09443 -70.55960 18988 ft 339 kts 359°
2026-04-20 17:13 -24.07109 -70.55853 18578 ft 332 kts 359°
2026-04-20 17:13 -24.04823 -70.55758 18134 ft 326 kts 359°
2026-04-20 17:13 -24.02571 -70.55672 17671 ft 321 kts 359°
2026-04-20 17:14 -24.00341 -70.55588 17218 ft 321 kts 359°
2026-04-20 17:14 -23.98077 -70.55504 16751 ft 322 kts 359°
2026-04-20 17:14 -23.95835 -70.55420 16317 ft 323 kts 359°
2026-04-20 17:14 -23.93593 -70.55338 15880 ft 323 kts 359°
2026-04-20 17:15 -23.91341 -70.55256 15448 ft 324 kts 359°
2026-04-20 17:15 -23.89094 -70.55170 15022 ft 321 kts 359°
2026-04-20 17:15 -23.86873 -70.55082 14599 ft 317 kts 359°
2026-04-20 17:15 -23.84683 -70.54995 14184 ft 313 kts 359°
2026-04-20 17:16 -23.82519 -70.54912 13751 ft 309 kts 360°
2026-04-20 17:16 -23.80379 -70.54828 13298 ft 306 kts 360°
2026-04-20 17:16 -23.78262 -70.54746 12843 ft 303 kts 360°
2026-04-20 17:16 -23.76163 -70.54664 12396 ft 300 kts 360°
2026-04-20 17:17 -23.74083 -70.54585 11944 ft 298 kts
2026-04-20 17:17 -23.72022 -70.54506 11511 ft 295 kts
2026-04-20 17:17 -23.69974 -70.54428 11087 ft 293 kts
2026-04-20 17:17 -23.67943 -70.54350 10663 ft 291 kts
2026-04-20 17:18 -23.65933 -70.54273 10268 ft 288 kts
2026-04-20 17:18 -23.63952 -70.54197 9864 ft 281 kts
2026-04-20 17:18 -23.62019 -70.54120 9434 ft 274 kts
2026-04-20 17:18 -23.60141 -70.54047 9010 ft 267 kts
2026-04-20 17:19 -23.58298 -70.53978 8591 ft 262 kts
2026-04-20 17:19 -23.56500 -70.53910 8186 ft 256 kts
2026-04-20 17:19 -23.54730 -70.53841 7828 ft 254 kts
2026-04-20 17:19 -23.52957 -70.53771 7511 ft 255 kts
2026-04-20 17:20 -23.51204 -70.53705 7252 ft 249 kts
2026-04-20 17:20 -23.49495 -70.53591 7015 ft 243 kts
2026-04-20 17:20 -23.47839 -70.53425 6783 ft 236 kts
2026-04-20 17:20 -23.46233 -70.53249 6560 ft 228 kts
2026-04-20 17:21 -23.44683 -70.53079 6338 ft 220 kts
2026-04-20 17:21 -23.43180 -70.52915 6119 ft 214 kts
2026-04-20 17:21 -23.41722 -70.52759 5889 ft 207 kts
2026-04-20 17:21 -23.40318 -70.52611 5680 ft 198 kts
2026-04-20 17:22 -23.38971 -70.52469 5491 ft 188 kts
2026-04-20 17:22 -23.37682 -70.52336 5293 ft 185 kts
2026-04-20 17:22 -23.36401 -70.52204 5100 ft 185 kts
2026-04-20 17:22 -23.35123 -70.52072 4898 ft 185 kts
2026-04-20 17:23 -23.33842 -70.51940 4699 ft 185 kts
2026-04-20 17:23 -23.32564 -70.51805 4559 ft 185 kts
2026-04-20 17:23 -23.31325 -70.51436 4327 ft 186 kts 24°
2026-04-20 17:23 -23.30260 -70.50638 4116 ft 187 kts 42°
2026-04-20 17:24 -23.29479 -70.49509 3912 ft 188 kts 60°
2026-04-20 17:24 -23.29065 -70.48156 3719 ft 191 kts 79°
2026-04-20 17:24 -23.29082 -70.46713 3512 ft 193 kts 98°
2026-04-20 17:24 -23.29536 -70.45335 3304 ft 195 kts 118°
2026-04-20 17:25 -23.30392 -70.44192 3099 ft 196 kts 139°
2026-04-20 17:25 -23.31549 -70.43430 2902 ft 195 kts 160°
2026-04-20 17:25 -23.32866 -70.43131 2700 ft 193 kts 180°
2026-04-20 17:25 -23.34189 -70.43248 2478 ft 189 kts 188°
2026-04-20 17:26 -23.35478 -70.43407 2195 ft 183 kts 188°
2026-04-20 17:26 -23.36702 -70.43554 1940 ft 170 kts 188°
2026-04-20 17:26 -23.37820 -70.43688 1716 ft 154 kts 187°
2026-04-20 17:26 -23.38839 -70.43811 1472 ft 142 kts 187°
2026-04-20 17:27 -23.39808 -70.43932 1267 ft 139 kts 187°
2026-04-20 17:27 -23.40761 -70.44051 1088 ft 137 kts 188°
2026-04-20 17:27 -23.41704 -70.44170 887 ft 136 kts 188°
2026-04-20 17:27 -23.42638 -70.44286 659 ft 135 kts 187°
2026-04-20 17:28 -23.43566 -70.44402 454 ft 130 kts 187°
2026-04-20 17:28 -23.44313 -70.44491 412 ft 84 kts 186°
2026-04-20 17:28 -23.44721 -70.44540 395 ft 34 kts 186°
2026-04-20 17:28 -23.44963 -70.44570 385 ft 35 kts 186°